Home   Weather   Barranquilla   Past weeks

Flag for Colombia Past Weather in Barranquilla, Colombia — Yesterday and Last 2 Weeks

Now
84 °F

Scattered clouds.


Feels Like: 96 °F
Forecast: 81 / 91 °F
Wind: 7 mph from North

Location: Barranquilla / Ernestocortissoz

Current Time: Apr 26, 2017 at 8:58:32 am

Latest Report: Apr 26, 2017 at 8:00 am


Visibility: N/A

Pressure: 29.83 "Hg

Humidity: 84%

Dew Point: 79 °F

Location of BarranquillaLocation

Past Weather in Barranquilla — Graph

°F

Barranquilla Temperature Yesterday

Maximum temperature yesterday: 91 °F (at 3:00 pm)
Minimum temperature yesterday: 79 °F (at 4:00 am)
Average temperature yesterday: 84 °F

High & Low Weather Summary for the Past Weeks

 TemperatureHumidityPressure
High95 °F (Apr 22, 12:00 pm)100% (Apr 21, 12:00 am)29.93 "Hg (Apr 21, 12:00 am)
Low75 °F (Apr 21, 4:00 am)47% (Apr 22, 12:00 pm)29.71 "Hg (Apr 13, 5:00 pm)
Average83 °F80%29.81 "Hg
* Reported Apr 11 8:00 am — Apr 26 7:00 am, Barranquilla, Weather by CustomWeather, © 2017

Note: Actual official high and low records may vary slightly from our data, if they occured in-between our weather recording intervals... More about our weather records

Advertising

Barranquilla Weather History for the Previous 24 Hours

Scroll right to see more
 ConditionsComfort  
Time TempWeatherWind HumidityBarometerVisibility
7:00 am
Wed, Apr 26
82 °FScattered clouds.7 mph89%29.80 "HgN/A
6:00 am81 °FSunny.6 mph89%29.77 "Hg10 mi
5:00 am82 °FPassing clouds.6 mph84%29.77 "HgN/A
4:00 am82 °FPassing clouds.8 mph84%29.77 "HgN/A
3:00 am82 °FPassing clouds.10 mph84%29.77 "HgN/A
2:00 am82 °FPassing clouds.6 mph89%29.79 "HgN/A
1:00 am82 °FPassing clouds.8 mph89%29.81 "HgN/A
12:00 am82 °FPassing clouds.8 mph89%29.82 "HgN/A
11:00 pm
Tue, Apr 25
82 °FPassing clouds.9 mph89%29.83 "HgN/A
10:00 pm82 °FWarm.N/A89%29.83 "HgN/A
9:00 pm82 °FPassing clouds.7 mph84%29.82 "HgN/A
8:00 pm82 °FPassing clouds.9 mph89%29.81 "HgN/A
7:00 pm82 °FPassing clouds.8 mph84%29.79 "HgN/A
6:00 pm84 °FScattered clouds.14 mph79%29.76 "HgN/A
5:00 pm86 °FScattered clouds.8 mph75%29.75 "HgN/A
4:00 pm90 °FScattered clouds.9 mph67%29.74 "HgN/A
3:00 pm91 °FScattered clouds.12 mph63%29.77 "HgN/A
2:00 pm90 °FScattered clouds.14 mph71%29.79 "HgN/A
1:00 pm88 °FScattered clouds.8 mph75%29.82 "HgN/A
12:00 pm88 °FPartly sunny.13 mph75%29.85 "HgN/A
11:00 am86 °FPartly sunny.8 mph79%29.86 "HgN/A
10:00 am84 °FPartly sunny.6 mph84%29.88 "HgN/A
9:00 am82 °FFog.7 mph94%29.88 "Hg5 mi
8:17 am82 °FFog.5 mph94%29.88 "Hg5 mi
8:00 am81 °FRain. Broken clouds.6 mph100%29.88 "Hg4 mi
Weather by CustomWeather, © 2017

See weather overviewHow to use our weather pages